STARLINK-32150 (60294 NORAD) Tracking and Keplerian Element Data

This shows tracking and keplerian element data for the satellite.

Feedback or suggestion? Click here.




ElementValue
Catalog60294
NameSTARLINK-32150
Epoch Orbit1301
Epoch Day286.68163262
Epoch Year2024
RAAN275.5104
Inclination53.1611
Eccentricity0.0001456
Argument of Perigee92.1879
Mean Anonmoly267.9289
Mean Motion15.30200501
Decay Rate-8.79E-06
L11 60294U 24132S 24286.68163262 -.00000879 00000+0 -17551-4 0 9997
L22 60294 53.1611 275.5104 0001456 92.1879 267.9289 15.30200501 13011



Live tracking and technical data element details for STARLINK-32150 (NORAD 60294). STARLINK-32150 can be tracked NOW for your location showing map with azimuth and elevation plus other details from your city location.







IsCatalogInMostPopularTable: catalog: 60294, numindb: 11
Update: records affected: 1



GetName: 60294 STARLINK-32150

Hit Count: updated at: Thu, 23 Jan 2025 15:14:00 GMT